Probability
0 0 0 0 0 0 0 0 0 0 0 0 0 0 0 0 0 0 0 0 0 0 0 0 0 0 0 0 0 0 0 0 0 0 0 0 0 0 0 0 0 0 0
0 0 0 0 0 0 0 0 0 0 0 0 0 0 0 0 0 0 0 0 0 0 0 0 0 0 0 0 0 0 0 0 0 0 0 0 0 0 0 0 0 0 0
0 0 0 0 0 0 0 0 0 0 0 0 0 0 0 0 0 0 0 0 0 0 0 0 0 0 0 0 0 0 0 0 0 0 0 0 0 0 0 0 0 0 0
0 0 0 0 0 0 0 0 0 0 0 0 0 0 0 0 0 0 0 0 0 0 0 0 0 0 0 0 0 0 0 0 0 0 0 0 0 0 0 0 0 0 0
0 0 0 0 0 0 0 0 0 0 0 0 0 0 0 0 0 0 0 0 0 0 0 0 0 0 0 0 0 0 0 0 0 0 0 0 0 0 0 0 0 0 0
0 0 0 0 0 0 0 0 0 0 0 0 0 0 0 0 0 0 0 0 0 0 0 0 0 0 0 0 0 0 0 0 0 0 0 0 0 0 0 0 0 0 0
0 0 0 0 0 0 0 0 0 0 0 0 0 0 0 0 0 0 0 0 0 0 0 0 0 0 0 0 0 0 0 0 0 0 0 0 0 0 0 0 0 0 0
0 0 0 0 0 0 0 3 0 0 0 0 0 0 0 0 0 0 0 0 0 0 0 0 0 0 0 0 0 0 0 0 0 0 0 0 0 0 0 0 0 0 0
3 0 0 0 0 0 3 3 3 0 0 0 0 0 0 0 0 0 0 0 0 0 0 0 0 0 0 0 0 0 0 0 0 0 0 0 0 0 0 0 0 0 0
0 0 0 3 3 3 3 3 3 3 0 0 0 0 0 0 0 0 0 0 0 0 0 0 0 0 0 0 0 0 0 0 0 0 0 0 0 0 0 0 0 0 0
0 0 0 3 3 3 3 3 3 3 0 0 0 0 0 0 0 0 0 0 0 0 0 0 0 0 0 0 0 0 0 0 0 0 0 0 0 0 0 0 0 0 0
0 0 0 3 3 3 3 3 3 0 0 0 0 0 0 0 0 0 0 0 0 0 0 0 0 0 0 0 0 0 0 0 0 0 0 0 0 0 0 0 0 0 0
3 0 0 3 3 3 3 3 0 0 0 0 0 0 0 0 0 0 0 0 0 0 0 0 0 0 0 0 0 0 0 0 0 0 0 0 0 0 0 0 0 0 0
3 0 0 3 3 3 3 0 0 0 0 0 0 0 0 0 0 0 0 0 0 0 0 0 0 0 0 0 0 0 0 0 0 0 0 0 0 0 0 0 0 0 0
3 3 0 0 0 0 0 0 0 0 0 0 0 0 0 0 0 0 0 0 0 0 0 0 0 0 0 0 0 0 0 0 0 0 0 0 0 0 0 0 0 0 0
3 0 0 0 0 0 0 0 0 0 0 0 0 0 0 0 0 0 0 0 0 0 0 0 0 0 0 0 0 0 0 0 0 0 0 0 0 0 0 0 0 0 0
0 0 0 0 0 0 0 0 0 0 0 0 0 0 0 0 0 0 0 0 0 0 0 0 0 0 0 0 0 0 0 0 0 0 0 0 0 0 0 0 0 0 0
0 0 0 0 0 0 0 0 0 0 0 0 0 0 0 0 0 0 0 0 0 0 0 0 0 0 0 0 0 0 0 0 0 0 0 0 0 0 0 0 0 0 0
0 0 0 0 0 0 0 0 0 0 0 0 0 0 0 0 0 0 0 0 0 0 0 0 0 0 0 0 0 0 0 0 0 0 0 0 0 0 0 0 0 0 0
0 0 0 0 0 0 0 0 0 0 0 0 0 0 0 0 0 0 0 0 0 0 0 0 0 0 0 0 0 0 0 0 0 0 0 0 0 0 0 0 0 0 0
0 0 0 0 0 0 0 0 0 0 0 0 0 0 0 0 0 0 0 0 0 0 0 0 0 0 0 0 0 0 0 0 0 0 0 0 0 0 0 0 0 0 0
0 0 0 0 0 0 0 0 0 0 0 0 0 0 0 0 0 0 0 0 0 0 0 0 0 0 0 0 0 0 0 0 0 0 0 0 0 0 0 0 0 0 0
0 0 0 0 0 0 0 0 0 0 0 0 0 0 0 0 0 0 0 0 0 0 0 0 0 0 0 0 0 0 0 0 0 0 0 0 0 0 0 0 0 0 0
0 0 0 0 0 0 0 0 0 0 0 0 0 0 0 0 0 0 0 0 0 0 0 0 0 0 0 0 0 0 0 0 0 0 0 0 0 0 0 0 0 0 0
0 0 0 0 0 0 0 0 0 0 0 0 0 0 0 0 0 0 0 0 0 0 0 0 0 0 0 0 0 0 0 0 0 0 0 0 0 0 0 0 0 0 0
0 0 0 0 0 0 0 0 0 0 0 0 0 0 0 0 0 0 0 0 0 0 0 0 0 0 0 0 0 0 0 0 0 0 0 0 0 0 0 0 0 0 0
Height
5806 5804 5802 5801 5799 5798 5796 5795 5793 5791 5790 5789 5788 5787 5786 5785 5784 5783 5783 5782 5782 5782 5781 5781 5781 5781 5782 5782 5782 5782 5782 5781 5781 5781 5780 5780 5780 5780 5779 5779 5779 5779 5779
5800 5798 5797 5795 5794 5792 5790 5789 5787 5786 5784 5783 5781 5780 5779 5778 5777 5777 5776 5776 5775 5775 5774 5775 5775 5775 5775 5775 5775 5775 5775 5775 5775 5775 5774 5774 5774 5774 5773 5773 5773 5773 5773
5794 5793 5791 5789 5788 5786 5784 5783 5781 5780 5778 5776 5775 5774 5772 5771 5771 5770 5769 5769 5768 5768 5768 5768 5768 5768 5768 5768 5768 5768 5768 5768 5768 5768 5768 5768 5768 5767 5767 5767 5767 5767 5767
5789 5787 5785 5783 5782 5780 5778 5777 5775 5773 5772 5770 5768 5767 5766 5765 5764 5763 5762 5761 5761 5761 5761 5760 5760 5760 5761 5760 5760 5761 5761 5761 5761 5761 5761 5761 5761 5761 5761 5761 5761 5760 5760
5782 5780 5779 5777 5775 5773 5772 5770 5768 5767 5765 5763 5762 5760 5759 5758 5757 5756 5755 5754 5754 5754 5754 5753 5753 5753 5753 5753 5753 5753 5753 5754 5754 5754 5754 5754 5754 5754 5754 5754 5754 5753 5753
5776 5774 5772 5770 5768 5767 5765 5763 5761 5760 5758 5756 5755 5753 5752 5751 5749 5749 5748 5747 5747 5746 5746 5746 5746 5745 5745 5745 5745 5745 5746 5746 5746 5746 5747 5747 5746 5746 5746 5746 5746 5746 5745
5768 5766 5765 5763 5761 5759 5757 5756 5754 5752 5751 5749 5747 5746 5744 5743 5742 5741 5740 5740 5740 5739 5739 5738 5738 5738 5738 5738 5737 5738 5738 5738 5738 5739 5739 5739 5739 5738 5738 5738 5737 5737 5737
5761 5759 5757 5755 5753 5751 5749 5747 5746 5744 5743 5741 5739 5738 5736 5735 5734 5733 5732 5732 5732 5731 5731 5731 5730 5730 5730 5730 5730 5730 5730 5730 5730 5730 5730 5730 5730 5730 5730 5729 5729 5729 5728
5753 5751 5749 5746 5744 5742 5740 5739 5737 5735 5734 5732 5730 5729 5728 5726 5725 5725 5724 5724 5723 5723 5723 5722 5722 5722 5722 5722 5722 5722 5722 5721 5721 5721 5722 5721 5721 5721 5720 5720 5720 5719 5719
5744 5742 5740 5738 5735 5733 5731 5729 5728 5726 5724 5723 5721 5720 5719 5718 5717 5716 5715 5715 5715 5714 5714 5714 5714 5713 5713 5712 5713 5713 5713 5712 5712 5712 5712 5712 5712 5711 5711 5711 5710 5710 5710
5735 5733 5730 5728 5726 5723 5721 5719 5717 5716 5714 5713 5712 5710 5709 5709 5708 5707 5706 5706 5706 5705 5705 5705 5704 5704 5703 5703 5703 5703 5703 5703 5703 5703 5703 5703 5702 5702 5701 5701 5701 5700 5700
5726 5723 5720 5718 5716 5713 5711 5709 5707 5705 5704 5703 5702 5701 5700 5699 5698 5698 5697 5696 5696 5696 5696 5695 5695 5694 5694 5693 5693 5693 5693 5693 5693 5693 5693 5693 5692 5692 5691 5691 5690 5690 5690
5716 5713 5710 5708 5705 5703 5701 5699 5697 5695 5694 5693 5692 5691 5690 5689 5688 5687 5687 5686 5686 5685 5685 5685 5685 5684 5684 5684 5683 5683 5682 5682 5682 5682 5682 5682 5681 5681 5680 5680 5680 5679 5679
5706 5703 5701 5698 5696 5693 5691 5689 5687 5686 5684 5683 5681 5680 5679 5678 5677 5676 5676 5675 5675 5675 5675 5675 5674 5674 5674 5673 5673 5672 5672 5671 5671 5671 5671 5671 5670 5670 5670 5670 5669 5669 5668
5697 5694 5691 5688 5686 5683 5681 5679 5677 5676 5674 5672 5671 5669 5668 5667 5666 5665 5665 5665 5664 5664 5664 5664 5664 5663 5663 5663 5662 5662 5661 5661 5660 5660 5660 5660 5660 5659 5659 5659 5659 5658 5658
5688 5684 5681 5678 5676 5673 5671 5669 5667 5665 5663 5662 5660 5659 5658 5657 5655 5655 5654 5653 5653 5653 5652 5653 5652 5652 5652 5652 5651 5651 5650 5649 5649 5649 5649 5649 5649 5648 5648 5648 5647 5647 5647
5678 5675 5672 5669 5666 5663 5661 5660 5657 5656 5653 5651 5650 5649 5647 5646 5645 5644 5643 5642 5642 5641 5641 5641 5641 5641 5641 5641 5640 5640 5639 5639 5638 5638 5637 5637 5637 5637 5637 5637 5636 5636 5636
5668 5665 5662 5659 5657 5654 5652 5650 5648 5646 5644 5642 5640 5638 5637 5636 5634 5633 5632 5632 5631 5630 5630 5630 5630 5630 5629 5629 5629 5628 5628 5628 5627 5627 5626 5626 5625 5625 5625 5625 5624 5624 5623
5659 5655 5653 5650 5647 5644 5642 5639 5637 5636 5634 5632 5630 5628 5626 5625 5624 5623 5622 5621 5620 5620 5619 5618 5618 5618 5618 5617 5617 5616 5616 5616 5615 5614 5614 5614 5613 5613 5613 5613 5612 5612 5611
5648 5645 5643 5640 5637 5635 5632 5630 5627 5625 5623 5621 5619 5617 5616 5614 5613 5612 5611 5610 5609 5609 5608 5608 5607 5606 5606 5605 5605 5604 5604 5603 5603 5602 5602 5601 5601 5601 5601 5601 5600 5600 5599
5639 5636 5633 5630 5627 5625 5622 5620 5617 5615 5613 5610 5609 5607 5605 5604 5603 5602 5601 5600 5599 5598 5597 5596 5596 5595 5594 5593 5593 5592 5592 5591 5591 5590 5590 5590 5589 5589 5588 5588 5588 5587 5587
5629 5626 5623 5621 5618 5615 5612 5610 5607 5604 5602 5600 5598 5596 5594 5593 5592 5591 5590 5588 5587 5586 5585 5585 5584 5584 5583 5582 5581 5580 5580 5580 5579 5578 5578 5577 5577 5576 5576 5575 5575 5575 5575
5619 5616 5613 5611 5608 5605 5602 5599 5597 5594 5591 5589 5587 5586 5584 5583 5581 5580 5579 5577 5576 5575 5574 5573 5573 5572 5571 5570 5569 5569 5568 5568 5567 5566 5566 5565 5564 5564 5563 5563 5563 5562 5562
5609 5606 5603 5600 5597 5595 5592 5590 5587 5584 5582 5579 5577 5575 5574 5572 5571 5569 5568 5567 5565 5564 5563 5562 5561 5560 5559 5558 5557 5557 5556 5555 5554 5554 5553 5553 5552 5551 5551 5550 5550 5549 5549
5598 5595 5593 5590 5587 5585 5582 5580 5577 5574 5572 5569 5567 5565 5563 5562 5560 5559 5557 5556 5554 5553 5552 5551 5550 5548 5547 5547 5546 5545 5544 5543 5542 5541 5541 5540 5539 5539 5538 5537 5537 5536 5536
5588 5585 5582 5580 5577 5575 5572 5570 5567 5565 5562 5560 5557 5555 5553 5551 5550 5548 5546 5545 5543 5542 5541 5539 5538 5537 5536 5535 5534 5533 5532 5531 5530 5529 5528 5527 5527 5526 5525 5525 5524 5523 5523
Wind_Speed
18 17 18 18 19 19 19 19 19 19 19 19 19 19 19 19 19 19 20 20 20 20 20 20 20 21 21 20 20 20 20 19 19 19 19 19 19 19 19 19 18 18 18
19 19 19 19 19 19 19 19 19 18 19 19 19 19 20 20 20 20 20 21 22 22 22 21 21 22 22 22 22 22 22 21 20 20 20 20 20 20 20 19 18 18 19
20 20 20 20 19 19 19 19 19 19 19 19 20 20 20 21 21 21 22 22 22 23 23 23 23 23 23 23 23 23 23 23 22 21 21 21 21 21 21 21 20 20 21
21 21 21 21 21 21 20 20 20 20 20 20 20 20 20 20 21 21 22 22 22 23 23 23 24 25 25 24 24 23 23 23 23 23 22 22 22 22 22 22 22 23 23
22 22 22 22 22 22 21 21 21 21 21 22 21 21 21 21 21 22 22 22 22 22 23 23 24 24 24 24 24 24 24 24 24 24 23 22 23 24 24 24 25 25 25
24 23 23 23 23 23 23 23 22 22 22 22 23 23 23 23 23 22 21 22 22 23 23 22 22 23 23 23 23 24 24 24 25 25 24 24 24 25 25 25 26 26 26
25 25 25 25 25 25 25 24 24 24 24 24 24 24 24 24 24 24 23 23 23 24 24 24 24 24 24 23 24 24 25 25 26 26 26 26 26 26 27 27 27 27 28
26 26 27 27 26 26 26 26 26 26 26 26 26 25 25 25 25 26 26 25 25 25 26 26 26 25 25 26 26 26 26 26 27 27 28 27 27 27 28 27 27 28 29
28 28 28 29 28 28 28 27 28 28 28 28 27 27 27 27 27 27 27 27 27 26 27 27 28 28 27 27 28 28 28 28 29 29 29 28 28 28 29 29 29 29 29
29 29 30 30 30 30 29 29 29 29 29 29 28 28 28 28 28 28 28 28 28 28 28 28 28 29 29 29 29 29 29 29 29 30 30 31 30 30 30 31 31 30 30
30 30 31 31 31 31 30 30 30 30 30 30 29 29 29 29 29 29 29 29 29 29 29 29 29 30 30 31 31 31 30 31 31 32 32 32 32 32 31 32 32 31 31
30 31 31 31 31 31 31 31 31 31 31 31 30 30 30 31 31 31 31 31 31 31 31 31 30 30 31 31 31 31 32 32 32 32 33 33 33 33 33 33 33 33 33
30 30 31 31 31 31 31 31 30 30 31 32 32 31 32 33 33 33 33 33 33 32 32 32 32 31 31 31 31 32 33 34 34 34 34 34 34 34 34 34 34 34 34
30 30 30 30 31 31 31 31 31 31 31 31 32 32 32 33 33 34 34 34 33 33 33 33 33 32 32 32 32 32 33 34 34 35 35 34 34 34 34 34 34 34 34
31 31 31 31 31 31 31 31 31 31 31 31 31 32 33 33 33 34 34 33 33 34 34 34 34 34 34 34 34 33 33 34 35 35 35 35 34 34 34 33 33 33 34
30 31 31 31 31 31 31 31 31 31 32 32 32 32 32 33 33 33 33 33 33 34 34 34 34 34 34 34 34 34 35 35 35 36 36 35 35 35 35 34 34 33 33
31 31 30 31 31 31 31 31 31 31 32 32 32 32 32 33 33 33 33 33 33 34 34 34 34 34 34 34 35 35 35 36 35 35 35 36 36 36 36 36 35 34 35
32 32 31 31 31 31 31 31 31 32 32 32 33 33 33 33 33 33 33 33 32 33 33 34 35 35 35 35 35 35 36 36 36 36 36 37 37 38 38 37 36 36 36
32 32 32 32 32 32 32 32 32 32 32 32 32 32 33 33 33 33 33 33 33 33 33 33 34 35 36 37 36 36 36 36 37 37 37 38 38 38 37 37 37 38 37
32 32 32 32 32 31 31 32 32 32 32 32 32 33 33 33 33 33 33 33 33 33 34 33 34 34 35 37 37 37 36 37 37 36 36 36 36 37 37 37 37 38 38
31 31 31 32 31 31 31 32 32 32 33 33 32 33 33 33 33 33 33 33 34 34 34 34 35 35 35 35 35 36 36 36 36 36 35 35 36 36 37 37 37 37 37
32 32 32 32 32 32 32 32 32 33 33 33 32 32 33 33 33 34 34 34 35 34 34 34 35 35 35 35 35 35 36 36 36 36 36 36 36 37 37 37 37 38 38
32 32 32 33 33 32 32 32 31 31 31 31 31 32 32 33 33 32 33 33 33 33 34 34 35 35 35 35 35 35 35 36 37 37 37 37 36 37 37 37 38 38 39
33 33 33 33 33 32 32 32 32 32 31 31 32 32 32 32 32 32 32 32 33 33 33 34 35 35 35 35 35 35 36 36 37 37 37 37 36 36 37 37 38 39 39
34 34 34 33 32 32 31 31 31 31 31 31 31 31 31 31 32 32 33 34 33 33 33 34 34 34 35 35 35 36 36 36 36 36 36 36 37 37 37 38 38 38 38
34 34 32 31 31 31 31 31 31 31 31 31 31 30 31 31 32 33 34 34 34 34 34 35 35 35 35 36 36 36 36 36 36 36 37 37 37 37 38 38 38 37 36
Wind_Direction
292 291 290 289 288 288 287 287 286 284 282 281 279 277 277 277 275 272 270 268 266 267 268 266 266 265 264 264 266 267 267 269 268 268 269 268 267 265 266 266 267 267 265
292 291 290 291 290 291 289 288 286 284 283 282 279 277 276 277 275 273 271 269 267 267 268 266 267 267 264 264 265 266 267 268 268 268 269 269 268 267 267 267 267 267 267
291 289 290 291 291 289 288 287 285 283 283 283 282 279 278 277 276 274 272 272 269 267 268 268 268 267 265 264 264 265 267 267 268 269 268 269 268 268 267 266 266 268 269
290 288 288 289 290 289 287 286 287 286 284 284 283 281 279 277 276 274 274 273 270 269 268 267 267 266 266 265 263 264 265 266 267 267 266 267 268 269 268 267 266 268 269
289 286 286 286 287 287 286 285 285 287 286 283 283 281 279 278 277 275 274 272 270 269 269 268 266 265 266 266 262 262 263 264 266 266 266 268 269 269 269 269 267 268 269
289 287 285 284 285 285 285 284 284 285 286 284 284 282 278 277 275 274 275 274 271 270 269 268 267 265 265 264 261 260 263 264 265 265 266 268 270 270 270 270 269 269 268
288 287 286 285 284 284 284 283 284 284 284 285 284 282 277 275 274 272 272 274 273 271 271 270 269 268 265 265 264 263 263 265 266 266 265 268 270 270 270 270 270 271 269
288 287 286 284 284 284 283 283 282 283 282 283 284 282 278 274 272 272 271 270 271 271 270 268 269 268 267 266 266 265 266 265 266 267 267 268 270 271 270 271 271 271 269
286 285 284 283 283 283 283 282 281 281 282 282 282 281 279 276 274 273 271 269 270 270 270 270 270 269 269 268 268 266 265 265 266 268 268 268 270 270 271 272 273 273 271
287 285 283 284 284 284 283 282 281 280 280 281 280 279 277 275 274 274 272 270 269 269 269 270 271 270 270 269 268 267 266 265 265 266 268 268 270 271 272 273 273 272 270
288 287 285 285 285 284 284 283 283 281 279 279 279 279 278 275 273 273 272 271 270 270 270 270 271 272 271 271 270 269 267 265 265 266 267 268 269 270 270 271 271 270 270
288 286 285 284 284 284 284 284 283 281 280 279 279 278 278 276 274 273 271 270 270 271 270 270 272 273 273 272 271 269 267 265 266 267 267 268 268 268 269 270 269 269 270
288 286 285 285 284 284 284 284 283 283 282 280 279 277 276 276 273 271 270 270 270 270 270 270 271 271 271 271 271 270 268 267 267 267 268 268 267 268 269 270 270 270 270
290 290 288 287 286 284 283 283 283 282 281 281 279 277 275 274 274 271 269 270 270 270 269 269 269 269 270 271 271 270 270 270 270 268 268 268 269 269 269 270 271 271 271
292 290 290 290 288 285 283 282 281 280 279 279 279 277 276 275 274 274 272 271 272 272 271 270 269 268 269 270 271 270 270 271 270 269 269 269 269 270 270 270 271 271 272
294 293 291 290 288 285 284 283 282 281 280 279 280 279 278 277 275 276 274 273 272 272 271 271 271 270 270 270 271 271 271 271 271 270 269 268 269 270 270 271 270 271 272
294 294 293 290 288 286 284 283 282 282 282 281 280 279 278 277 276 277 276 275 274 272 271 270 270 270 270 271 271 270 271 271 271 271 271 270 269 269 270 271 271 272 272
293 293 293 292 290 289 287 285 283 283 283 282 281 278 277 277 277 278 278 276 275 274 272 271 271 270 271 271 271 271 271 271 271 271 271 271 271 271 271 271 272 272 273
292 292 292 292 291 291 289 287 285 284 284 284 283 280 278 278 278 277 277 276 275 274 273 272 272 271 271 271 271 271 271 271 271 271 271 271 271 271 271 272 273 273 272
292 292 293 292 291 291 290 289 287 286 285 284 283 281 280 279 278 278 278 276 275 275 274 273 273 273 273 272 272 272 272 272 271 271 270 269 269 269 270 271 272 272 271
292 293 293 292 291 291 291 290 288 286 285 284 283 281 280 280 279 279 277 276 276 275 274 273 274 274 275 276 274 273 272 272 271 271 270 270 270 270 270 270 270 271 271
292 293 292 292 291 291 290 290 289 287 285 284 284 282 281 280 279 278 277 277 276 275 274 273 274 275 276 276 276 275 273 272 271 272 272 273 272 272 272 271 271 270 270
292 293 292 291 290 290 290 290 289 288 287 287 286 284 282 281 280 279 279 279 278 277 275 274 274 275 275 276 276 276 275 274 273 272 272 273 272 272 271 272 271 271 270
292 293 293 291 290 289 289 289 290 289 288 287 286 285 283 282 282 282 281 281 280 278 278 277 276 276 276 276 276 276 276 276 275 274 273 272 272 271 271 272 272 272 271
291 291 291 290 289 288 289 289 290 290 289 288 287 286 285 283 282 282 282 282 280 279 279 278 278 276 275 275 276 277 277 277 275 275 274 273 272 272 272 272 273 273 272
293 292 291 290 289 289 289 290 290 290 289 288 287 287 286 286 285 284 283 282 280 280 279 279 278 278 277 276 277 278 277 276 276 276 275 274 273 273 273 273 272 271 270